Location: WWIN Observatory
(34.8953°N, 91.9583°W)
Time: 18:35:43
(UTC-05:00)

Tiangong 2 - Visible Passes

Search period start: 18 March 2019 00:00
Search period end: 28 March 2019 00:00
Orbit: 379 x 390 km, 42.8° (Epoch: 18 March)

Date Brightness Start Highest point End Pass type
(mag) Time Alt. Az. Time Alt. Az. Time Alt. Az.
18 Mar 4.2 05:01:41 14° NE 05:01:41 14° NE 05:02:24 10° NE visible
18 Mar 2.9 06:34:37 10° NW 06:37:23 26° NNE 06:40:09 10° ENE visible
19 Mar 3.1 05:37:11 20° N 05:37:45 21° N 05:40:17 10° ENE visible
20 Mar 2.3 06:12:44 13° NW 06:15:21 37° NNE 06:18:20 10° E visible
21 Mar 3.1 05:16:09 25° NNE 05:16:09 25° NNE 05:18:29 10° ENE visible
22 Mar 1.4 05:51:53 31° NW 05:53:11 64° NNE 05:56:19 10° ESE visible
23 Mar 3.9 04:55:32 18° E 04:55:32 18° E 04:56:36 10° E visible
23 Mar 2.0 06:27:46 12° W 06:30:20 32° SW 06:33:13 10° SSE visible
24 Mar 1.6 05:31:34 49° SSE 05:31:34 49° SSE 05:34:03 10° SE visible
25 Mar 2.8 06:07:47 17° SW 06:07:54 17° SW 06:10:01 10° S visible
27 Mar 3.6 20:39:29 10° S 20:39:44 11° S 20:39:44 11° S visible
